Regional Weather Roundup
Issued by NWS

Home | Current Version | Previous Version | Text Only | Print | Product List | Glossary On
Versions: 1 2 3 4 5 6 7 8 9 10 11 12 13 14 15 16 17 18 19 20 21 22 23 24 25 26 27 28 29 30 31 32 33 34 35 36 37 38 39 40 41 42 43 44 45 46 47 48 49 50
000
ASUS45 KPSR 221900
RWRAZ

PRELIMINARY ARIZONA REGIONAL HOURLY WEATHER ROUNDUP
NATIONAL WEATHER SERVICE PHOENIX AZ
1200 PM MST MON SEP 22 2014

NOTE: FAIR INDICATES FEW OR NO CLOUDS BELOW 12,000 FEET WITH NO
SIGNIFICANT WEATHER AND/OR OBSTRUCTIONS TO VISIBILITY.

AZZ001>003-036-222000-
NORTHWEST ARIZONA

CITY           SKY/WX    TMP DP  RH WIND       PRES   REMARKS
KINGMAN        SUNNY     87  41  19 S10G17    30.12S
$$

AZZ004>008-015-016-018-222000-
NORTH CENTRAL ARIZONA

CITY           SKY/WX    TMP DP  RH WIND       PRES   REMARKS
GRAND CANYON   SUNNY     73  43  33 S14G20    30.35S
PRESCOTT       PTSUNNY   78  44  29 N3        30.24F
FLAGSTAFF      SUNNY     70  47  43 S8        30.37F
PAYSON         PTSUNNY   77  59  53 CALM      30.26F
PAGE           SUNNY     82  46  28 VRB5      30.18F
$$

AZZ009>014-017-222000-
NORTHEAST ARIZONA

CITY           SKY/WX    TMP DP  RH WIND       PRES   REMARKS
WINSLOW        NOT AVBL
SAINT JOHNS    MOSUNNY   77  58  51 N8        30.26F
WINDOW ROCK    CLOUDY    65  58  78 N7        30.36F
$$

AZZ023-222000-
GREATER PHOENIX AREA

CITY           SKY/WX    TMP DP  RH WIND       PRES   REMARKS
PHOENIX        MOSUNNY   96  54  24 SW5       29.96F
GLENDALE       MOSUNNY  102  48  16 VRB3      29.98F
DEER VALLEY    SUNNY     92  53  26 SW8       29.98F
SCOTTSDALE     SUNNY     92  60  34 VRB5      30.00F
MESA-FALCON    MOSUNNY   93  61  33 W7        29.97
MESA-GATEWAY   MOSUNNY   93  63  36 S5        30.00F
CHANDLER       MOSUNNY   95  64  36 VRB6      29.97F
$$

AZZ027-028-222000-
SOUTHWEST MARICOPA COUNTY AND PINAL COUNTY

CITY           SKY/WX    TMP DP  RH WIND       PRES   REMARKS
CASA GRANDE    SUNNY     91  59  33 CALM      29.99F
GILA BEND      PTCLDY    99  43  14 W1        29.97F
$$

AZZ503-504-507>509-222000-
SOUTHEAST ARIZONA

CITY           SKY/WX    TMP DP  RH WIND       PRES   REMARKS
TUCSON         SUNNY     90  60  36 NE3       30.07F
DAVIS-MONTHAN  SUNNY     89  61  38 E5        30.05F
RYAN FIELD       N/A     90  63  40 SW3       30.06F
NOGALES        SUNNY     83  61  47 W5        30.14F
SIERRA VISTA   PTSUNNY   81  64  57 E7        30.21F
SAFFORD        MOSUNNY   83  63  50 SE12      30.12F
$$

AZZ020-021-025-026-031-222000-
SOUTHWEST ARIZONA

CITY           SKY/WX    TMP DP  RH WIND       PRES   REMARKS
YUMA           MOSUNNY   98  46  17 S7        29.91F
$$

CAZ031-033-041-043-047-048-061-222000-
SOUTHERN CALIFORNIA

CITY           SKY/WX    TMP DP  RH WIND       PRES   REMARKS
DOWNTOWN L.A.  SUNNY     78  63  59 W5        29.97F
L.A. AIRPORT   MOSUNNY   72  63  73 W10       29.99F
SAN DIEGO      MOSUNNY   75  62  64 NW9       29.99F
BURBANK        SUNNY     81  55  40 S6        29.98F
ONTARIO        SUNNY     84  57  39 SW7       29.98F
RIVERSIDE      SUNNY     82  57  42 VRB6      29.98
PALM SPRINGS   SUNNY     97  43  15 E8        29.93F
EL CENTRO NAS  SUNNY     95  52  23 E6        29.88F
IMPERIAL       SUNNY     94  56  27 VRB7      29.88F
BLYTHE         SUNNY     94  55  26 VRB5      29.92F
$$

NVZ020-UTZ003-222000-
SOUTHERN NEVADA-UTAH

CITY           SKY/WX    TMP DP  RH WIND       PRES   REMARKS
LAS VEGAS      NOT AVBL
SALT LAKE CITY MOSUNNY   75  49  39 S7G17     30.14F
$$

NMZ009-TXZ055-222000-
NEW MEXICO-WEST TEXAS

CITY           SKY/WX    TMP DP  RH WIND       PRES   REMARKS
ALBUQUERQUE    PTSUNNY   74  56  53 SW7       30.28F
EL PASO        LGT RAIN  71  67  87 N7        30.19F
$$


........................KEY........................
SKY/WX - SKY CONDITION/WEATHER
TMP    - TEMPERATURE IN FAHRENHEIT
DP     - DEW POINT IN FAHRENHEIT
RH     - RELATIVE HUMIDITY IN PERCENT
WIND   - DIRECTION AND SPEED IN MILES PER HOUR (MPH)
VRB    - VARIABLE WIND DIRECTION
PRES   - MEAN SEA LEVEL PRESSURE IN INCHES OF MERCURY
         F - FALLING PRESSURE   R - RISING PRESSURE
         S - STEADY PRESSURE
VSB    - VISIBILITY IN MILES
HX     - HEAT INDEX IN FAHRENHEIT
WCI    - WIND CHILL INDEX IN FAHRENHEIT
TC     - TEMPERATURE IN CELSIUS WHICH IS ALSO KNOWN AS
         TEMPERATURE IN CENTIGRADE
AFB    - AIR FORCE BASE
         LUKE AFB IS LUKE AIR FORCE BASE
         DAVIS-MONTHAN IS DAVIS-MONTHAN AIR FORCE BASE
NAS    - NAVAL AIR STATION
         EL CENTRO NAS IS EL CENTRO NAVAL AIR STATION
N/A    - NOT AVAILABLE


USA.gov is the U.S. government's official web portal to all federal, state and local government web resources and services.